| time (UTC) | temp F | wind direction | speed knots | gust knots | rain 1hr in | rain 24hr in | rain mn in | humidity % | barometer mb |
| 20260507200330 | 56 | 236 | 13.0 | 18.2 | 0.00 | 0.29 | 0.00 | 36 | 1005.1 |
| 20260507194829 | 57 | 235 | 11.3 | 16.5 | 0.00 | 0.29 | 0.00 | 37 | 1005.0 |
| 20260507193326 | 57 | 209 | 7.8 | 18.2 | 0.00 | 0.32 | 0.00 | 37 | 1005.2 |
| 20260507191826 | 57 | 218 | 9.6 | 16.5 | 0.00 | 0.32 | 0.00 | 37 | 1005.2 |
| 20260507190344 | 55 | 267 | 7.8 | 17.4 | 0.00 | 0.32 | 0.00 | 39 | 1005.6 |
| 20260507184827 | 56 | 284 | 7.8 | 17.4 | 0.00 | 0.32 | 0.00 | 39 | 1005.5 |
| 20260507183345 | 56 | 318 | 8.7 | 15.6 | 0.00 | 0.35 | 0.00 | 40 | 1005.7 |
| 20260507181825 | 56 | 260 | 10.4 | 17.4 | 0.00 | 0.35 | 0.00 | 39 | 1005.8 |
| 20260507180323 | 54 | 248 | 2.6 | 14.8 | 0.00 | 0.35 | 0.00 | 41 | 1005.9 |
| 20260507174826 | 56 | 277 | 12.2 | 21.7 | 0.00 | 0.35 | 0.00 | 39 | 1005.7 |
| 20260507173323 | 55 | 304 | 10.4 | 18.2 | 0.00 | 0.36 | 0.00 | 42 | 1006.1 |
| 20260507171823 | 54 | 209 | 15.6 | 21.7 | 0.00 | 0.36 | 0.00 | 44 | 1006.0 |
| 20260507170339 | 54 | 273 | 11.3 | 21.7 | 0.00 | 0.36 | 0.00 | 43 | 1006.2 |
| 20260507164838 | 54 | 305 | 10.4 | 16.5 | 0.00 | 0.36 | 0.00 | 47 | 1006.4 |
| 20260507163400 | 52 | 254 | 11.3 | 22.6 | 0.00 | 0.36 | 0.00 | 51 | 1006.6 |
| 20260507161839 | 52 | 273 | 10.4 | 20.9 | 0.00 | 0.36 | 0.00 | 60 | 1006.8 |
| 20260507160336 | 53 | 238 | 10.4 | 16.5 | 0.00 | 0.36 | 0.00 | 59 | 1006.9 |
| 20260507154835 | 52 | 232 | 11.3 | 18.2 | 0.00 | 0.36 | 0.00 | 61 | 1006.9 |
| 20260507153333 | 52 | 275 | 12.2 | 23.5 | 0.00 | 0.36 | 0.00 | 62 | 1007.1 |
| 20260507151838 | 51 | 210 | 10.4 | 20.0 | 0.00 | 0.36 | 0.00 | 65 | 1007.2 |
| 20260507150357 | 52 | 225 | 9.6 | 20.0 | 0.00 | 0.36 | 0.00 | 67 | 1007.4 |
| 20260507144834 | 51 | 265 | 12.2 | 19.1 | 0.00 | 0.36 | 0.00 | 65 | 1007.3 |
| 20260507143331 | 53 | 216 | 10.4 | 18.2 | 0.00 | 0.36 | 0.00 | 61 | 1006.9 |
| 20260507141835 | 52 | 249 | 8.7 | 15.6 | 0.00 | 0.36 | 0.00 | 62 | 1007.0 |
| 20260507140333 | 52 | 309 | 6.1 | 13.0 | 0.00 | 0.36 | 0.00 | 64 | 1007.0 |
| 20260507134833 | 53 | 205 | 5.2 | 7.8 | 0.00 | 0.36 | 0.00 | 66 | 1007.1 |
| 20260507133331 | 51 | 209 | 2.6 | 3.5 | 0.00 | 0.36 | 0.00 | 70 | 1007.4 |
| 20260507131853 | 50 | 222 | 4.3 | 7.8 | 0.00 | 0.36 | 0.00 | 71 | 1007.6 |
| 20260507130334 | 50 | 238 | 3.5 | 7.0 | 0.00 | 0.36 | 0.00 | 70 | 1007.7 |
| 20260507124834 | 50 | 213 | 3.5 | 4.3 | 0.00 | 0.36 | 0.00 | 72 | 1007.5 |
| 20260507123331 | 48 | 221 | 1.7 | 3.5 | 0.00 | 0.36 | 0.00 | 73 | 1007.5 |
| 20260507121831 | 47 | 184 | 2.6 | 4.3 | 0.00 | 0.36 | 0.00 | 75 | 1007.7 |
| 20260507120332 | 47 | 234 | 2.6 | 4.3 | 0.00 | 0.36 | 0.00 | 79 | 1007.8 |
| 20260507114832 | 45 | 222 | 1.7 | 5.2 | 0.00 | 0.36 | 0.00 | 84 | 1007.8 |
| 20260507113351 | 45 | 248 | 2.6 | 3.5 | 0.00 | 0.36 | 0.00 | 82 | 1007.5 |
| 20260507111830 | 44 | 232 | 2.6 | 4.3 | 0.00 | 0.36 | 0.00 | 86 | 1007.6 |
| 20260507110327 | 43 | 283 | 0.0 | 1.7 | 0.00 | 0.36 | 0.00 | 89 | 1007.5 |
| 20260507104832 | 42 | 60 | 1.7 | 4.3 | 0.00 | 0.36 | 0.00 | 91 | 1007.3 |
| 20260507103328 | 41 | 211 | 0.0 | 1.7 | 0.00 | 0.36 | 0.00 | 91 | 1007.7 |
| 20260507101849 | 41 | 63 | 0.9 | 2.6 | 0.00 | 0.36 | 0.00 | 90 | 1007.6 |
| 20260507100325 | 42 | 230 | 0.0 | 1.7 | 0.00 | 0.36 | 0.00 | 87 | 1007.6 |
| 20260507094825 | 42 | 276 | 0.9 | 3.5 | 0.00 | 0.36 | 0.00 | 85 | 1007.4 |
| 20260507093326 | 42 | 252 | 2.6 | 3.5 | 0.00 | 0.36 | 0.00 | 84 | 1007.3 |
| 20260507091847 | 42 | 267 | 1.7 | 3.5 | 0.00 | 0.36 | 0.00 | 85 | 1007.1 |
| 20260507090323 | 42 | 286 | 0.0 | 1.7 | 0.00 | 0.36 | 0.00 | 89 | 1007.3 |
| 20260507084823 | 42 | 318 | 0.9 | 3.5 | 0.00 | 0.36 | 0.00 | 87 | 1007.0 |
| 20260507083324 | 42 | 265 | 0.9 | 3.5 | 0.00 | 0.36 | 0.00 | 90 | 1007.2 |
| 20260507081824 | 43 | 56 | 1.7 | 2.6 | 0.00 | 0.36 | 0.00 | 90 | 1007.2 |
| 20260507080321 | 44 | 66 | 2.6 | 3.5 | 0.00 | 0.36 | 0.00 | 86 | 1007.1 |
| 20260507074843 | 44 | 225 | 2.6 | 6.1 | 0.00 | 0.36 | 0.00 | 83 | 1006.7 |
| 20260507073341 | 45 | 284 | 3.5 | 7.0 | 0.00 | 0.36 | 0.00 | 84 | 1006.5 |
| 20260507071824 | 45 | 295 | 2.6 | 7.8 | 0.00 | 0.36 | 0.00 | 86 | 1006.7 |
| 20260507070343 | 45 | 259 | 1.7 | 6.1 | 0.00 | 0.36 | 0.00 | 87 | 1006.6 |
| 20260507064842 | 45 | 213 | 4.3 | 6.1 | 0.00 | 0.36 | 0.00 | 89 | 1006.7 |
| 20260507063338 | 45 | 252 | 6.1 | 16.5 | 0.00 | 0.36 | 0.00 | 88 | 1006.3 |
| 20260507061838 | 46 | 252 | 3.5 | 7.8 | 0.00 | 0.36 | 0.00 | 89 | 1006.1 |
| 20260507060341 | 46 | 254 | 4.3 | 8.7 | 0.00 | 0.36 | 0.00 | 90 | 1006.1 |
| 20260507054840 | 46 | 277 | 2.6 | 7.0 | 0.00 | 0.36 | 0.00 | 89 | 1006.0 |
| 20260507053337 | 46 | 260 | 2.6 | 6.1 | 0.00 | 0.36 | 0.00 | 90 | 1005.9 |
| 20260507051837 | 47 | 252 | 4.3 | 7.8 | 0.00 | 0.36 | 0.00 | 90 | 1006.0 |
| 20260507050338 | 47 | 269 | 3.5 | 9.6 | 0.00 | 0.36 | 0.00 | 88 | 1005.8 |
| 20260507044839 | 47 | 202 | 4.3 | 9.6 | 0.01 | 0.36 | 0.00 | 88 | 1006.0 |
| 20260507043337 | 47 | 268 | 3.5 | 12.2 | 0.01 | 0.36 | 0.36 | 88 | 1005.6 |
| 20260507041837 | 48 | 292 | 4.3 | 12.2 | 0.02 | 0.36 | 0.36 | 88 | 1006.0 |
| 20260507040339 | 49 | 338 | 2.6 | 7.0 | 0.02 | 0.36 | 0.36 | 90 | 1005.9 |
| 20260507034839 | 50 | 293 | 3.5 | 7.0 | 0.01 | 0.35 | 0.35 | 90 | 1005.8 |
| 20260507033337 | 50 | 268 | 4.3 | 8.7 | 0.01 | 0.35 | 0.35 | 91 | 1005.6 |
| 20260507031837 | 51 | 302 | 3.5 | 8.7 | 0.00 | 0.34 | 0.34 | 93 | 1005.8 |
| 20260507030335 | 52 | 281 | 4.3 | 8.7 | 0.00 | 0.34 | 0.34 | 93 | 1005.3 |
| 20260507024840 | 53 | 217 | 7.8 | 13.0 | 0.00 | 0.34 | 0.34 | 93 | 1005.2 |
| 20260507023335 | 53 | 244 | 6.1 | 8.7 | 0.00 | 0.34 | 0.34 | 93 | 1005.2 |
| 20260507021833 | 54 | 227 | 4.3 | 7.0 | 0.00 | 0.34 | 0.34 | 93 | 1005.2 |
| 20260507020329 | 55 | 237 | 4.3 | 7.8 | 0.01 | 0.34 | 0.34 | 93 | 1005.0 |
| 20260507014834 | 55 | 227 | 4.3 | 6.1 | 0.01 | 0.34 | 0.34 | 93 | 1004.9 |
| 20260507013331 | 56 | 221 | 1.7 | 7.0 | 0.01 | 0.34 | 0.34 | 92 | 1005.0 |
| 20260507011829 | 57 | 271 | 4.3 | 7.8 | 0.01 | 0.34 | 0.34 | 92 | 1005.0 |
| 20260507010325 | 57 | 256 | 3.5 | 5.2 | 0.00 | 0.33 | 0.33 | 92 | 1005.0 |
| 20260507004828 | 57 | 136 | 0.9 | 1.7 | 0.05 | 0.33 | 0.33 | 92 | 1004.8 |
| 20260507003324 | 57 | 215 | 1.7 | 3.5 | 0.05 | 0.33 | 0.33 | 93 | 1004.7 |
| 20260507001845 | 57 | 263 | 2.6 | 5.2 | 0.05 | 0.33 | 0.33 | 93 | 1004.7 |
| 20260507000323 | 57 | 280 | 0.9 | 5.2 | 0.05 | 0.33 | 0.33 | 93 | 1004.6 |
| 20260506234843 | 57 | 154 | 3.5 | 7.0 | 0.01 | 0.28 | 0.28 | 93 | 1004.5 |
| 20260506233323 | 57 | 59 | 3.5 | 8.7 | 0.01 | 0.28 | 0.28 | 92 | 1004.3 |
| 20260506231823 | 58 | 194 | 3.5 | 8.7 | 0.01 | 0.28 | 0.28 | 92 | 1004.4 |
| 20260506230341 | 58 | 119 | 3.5 | 9.6 | 0.01 | 0.28 | 0.28 | 92 | 1004.2 |
| 20260506224841 | 58 | 132 | 2.6 | 8.7 | 0.01 | 0.27 | 0.27 | 93 | 1004.2 |
| 20260506223321 | 58 | 156 | 3.5 | 9.6 | 0.02 | 0.27 | 0.27 | 93 | 1004.5 |
| 20260506221842 | 58 | 79 | 5.2 | 10.4 | 0.03 | 0.27 | 0.27 | 92 | 1004.5 |
| 20260506220402 | 58 | 118 | 4.3 | 9.6 | 0.05 | 0.27 | 0.27 | 92 | 1004.6 |
| 20260506214841 | 58 | 166 | 3.5 | 14.8 | 0.06 | 0.26 | 0.26 | 92 | 1004.8 |
| 20260506213336 | 58 | 128 | 2.6 | 7.0 | 0.05 | 0.25 | 0.25 | 92 | 1004.9 |
| 20260506211840 | 58 | 93 | 2.6 | 7.8 | 0.07 | 0.24 | 0.24 | 92 | 1005.1 |
| 20260506210337 | 58 | 157 | 1.7 | 7.8 | 0.09 | 0.22 | 0.22 | 92 | 1005.3 |
| 20260506204834 | 58 | 171 | 4.3 | 8.7 | 0.12 | 0.20 | 0.20 | 92 | 1005.5 |
| 20260506203331 | 58 | 167 | 2.6 | 11.3 | 0.12 | 0.19 | 0.19 | 92 | 1005.7 |
| 20260506201829 | 58 | 251 | 3.5 | 9.6 | 0.12 | 0.17 | 0.17 | 92 | 1005.8 |